Weather History for Klamath Falls, OR

Change the Weather History Date:

Tuesday, November 29, 2011

  Actual Average Record
Temperature  
Mean Temperature 37 °F 31 °F  
Max Temperature 51 °F 40 °F 58 °F (1995)
Min Temperature 23 °F 22 °F -1 °F (2010)
Degree Days  
Heating Degree Days 28 34  
Month to date heating degree days 862 853  
Since 1 July heating degree days 1647 1769  
Cooling Degree Days 0 0  
Month to date cooling degree days 0 0  
Year to date cooling degree days 104 169  
Moisture  
Dew Point 30 °F    
Average Humidity 89    
Maximum Humidity 100    
Minimum Humidity 55    
Precipitation  
Precipitation 0.00 in 0.08 in 0.75 in (2003)
Month to date precipitation 0.45 2.10  
Year to date precipitation 6.59 13.42  
Sea Level Pressure  
Sea Level Pressure 30.31 in    
Wind  
Wind Speed 4 mph (West)    
Max Wind Speed 20 mph    
Max Gust Speed 24 mph    
Visibility 4 miles    
Events Fog    
T = Trace of Precipitation, MM = Missing Value Source: NWS Daily Summary

Daily Weather History Graph

Daily Weather History Graph

Search for Another Location

Airport:

Trip Planner

Search our weather history database for the weather conditions in past years. The results will help you decide how hot, cold, wet, or windy it might be!

Date:

Astronomy

Nov. 29, 2011 Rise Set
Actual Time 7:13 AM PST 4:36 PM PST
Civil Twilight 6:42 AM PST 5:07 PM PST
Nautical Twilight 6:07 AM PST 5:42 PM PST
Astronomical Twilight 5:34 AM PST 6:16 PM PST
Moon 11:01 AM PST 9:38 PM PST
Length of Visible Light 10h 25m
Length of Day
9h 23m
Waxing Crescent, 25% of the Moon is Illuminated
Nov 29
Waxing Crescent
Dec 2
First Quarter
Dec 10
Full
Dec 17
Last Quarter
Dec 24
New

Hourly Weather History & Observations

Time (PST) Temp. Windchill Dew Point Humidity Pressure Visibility Wind Dir Wind Speed Gust Speed Precip Events Conditions
12:53 AM 28.9 °F - 27.0 °F 92% 30.33 in 10.0 mi Calm Calm - N/A   Clear
1:53 AM 27.0 °F 23.0 °F 26.1 °F 96% 30.33 in 2.0 mi East 3.5 mph - N/A   Partly Cloudy
2:00 AM 26.6 °F - 24.8 °F 93% 30.31 in 1.2 mi Calm Calm - N/A   Partly Cloudy
2:05 AM 26.6 °F - 26.6 °F 100% 30.32 in 3.0 mi Calm Calm - N/A   Clear
2:10 AM 24.8 °F - 24.8 °F 100% 30.32 in 1.5 mi Calm Calm - N/A   Partly Cloudy
2:20 AM 23.0 °F - 23.0 °F 100% 30.32 in 2.0 mi Calm Calm - N/A   Mostly Cloudy
2:27 AM 24.8 °F - 24.8 °F 100% 30.32 in 6.0 mi Calm Calm - N/A   Mostly Cloudy
2:30 AM 24.8 °F - 24.8 °F 100% 30.32 in 1.5 mi Calm Calm - N/A   Mostly Cloudy
2:38 AM 26.6 °F - 24.8 °F 93% 30.32 in 0.5 mi Calm Calm - N/A Fog Light Freezing Fog
2:53 AM 26.1 °F - 25.0 °F 96% 30.33 in 0.5 mi Calm Calm - N/A Fog Light Freezing Fog
3:08 AM 26.6 °F - 26.6 °F 100% 30.31 in 0.2 mi Calm Calm - N/A Fog Light Freezing Fog
3:53 AM 28.9 °F - 28.0 °F 96% 30.32 in 0.2 mi Calm Calm - N/A Fog Light Freezing Fog
4:12 AM 28.4 °F - 28.4 °F 100% 30.31 in 0.2 mi Calm Calm - N/A Fog Light Freezing Fog
4:39 AM 26.6 °F - 26.6 °F 100% 30.31 in 0.2 mi Calm Calm - N/A Fog Light Freezing Fog
4:53 AM 27.0 °F - 27.0 °F 100% 30.34 in 0.2 mi Calm Calm - N/A Fog Light Freezing Fog
5:53 AM 27.0 °F - 27.0 °F 100% 30.36 in 0.2 mi Calm Calm - N/A Fog Light Freezing Fog
6:00 AM 28.4 °F - 28.4 °F 100% 30.31 in 0.2 mi Calm Calm - N/A Fog Light Freezing Fog
6:53 AM 28.0 °F - 27.0 °F 96% 30.36 in 0.1 mi Calm Calm - N/A Fog Light Freezing Fog
7:53 AM 28.0 °F - 27.0 °F 96% 30.38 in 0.1 mi Calm Calm - N/A Fog Light Freezing Fog
8:53 AM 28.9 °F - 28.0 °F 96% 30.39 in 0.2 mi Calm Calm - N/A Fog Light Freezing Fog
9:53 AM 30.9 °F - 30.0 °F 96% 30.40 in 0.2 mi Calm Calm - N/A Fog Light Freezing Fog
10:05 AM 32.0 °F - 30.2 °F 93% 30.34 in 0.5 mi Calm Calm - N/A Fog Light Freezing Fog
10:26 AM 32.0 °F - 32.0 °F 100% 30.33 in 0.2 mi Calm Calm - N/A Fog Light Freezing Fog
10:53 AM 32.0 °F - 32.0 °F 100% 30.38 in 0.2 mi Calm Calm - N/A Fog Light Freezing Fog
11:37 AM 35.6 °F - 35.6 °F 100% 30.30 in 0.5 mi Calm Calm - N/A Fog Fog
11:53 AM 36.0 °F 33.3 °F 36.0 °F 100% 30.35 in 1.0 mi WNW 3.5 mph - N/A   Mostly Cloudy
11:58 AM 35.6 °F - 35.6 °F 100% 30.30 in 2.0 mi Calm Calm - N/A   Mostly Cloudy
12:05 PM 35.6 °F - 35.6 °F 100% 30.29 in 3.0 mi Calm Calm - N/A   Mostly Cloudy
12:21 PM 37.4 °F - 37.4 °F 100% 30.28 in 7.0 mi Calm Calm - N/A   Mostly Cloudy
12:53 PM 41.0 °F 39.0 °F 37.9 °F 89% 30.32 in 10.0 mi NNW 3.5 mph - N/A   Mostly Cloudy
1:53 PM 46.9 °F - 37.9 °F 71% 30.28 in 10.0 mi Calm Calm - N/A   Mostly Cloudy
2:53 PM 50.0 °F - 35.1 °F 57% 30.25 in 10.0 mi South 3.5 mph - N/A   Mostly Cloudy
3:53 PM 50.0 °F - 36.0 °F 59% 30.25 in 10.0 mi Calm Calm - N/A   Mostly Cloudy
4:53 PM 42.1 °F 38.4 °F 36.0 °F 79% 30.26 in 10.0 mi SSW 5.8 mph - N/A   Mostly Cloudy
5:53 PM 43.0 °F 40.3 °F 34.0 °F 71% 30.26 in 7.0 mi WSW 4.6 mph - N/A   Scattered Clouds
6:53 PM 44.1 °F 37.4 °F 34.0 °F 68% 30.25 in 7.0 mi West 13.8 mph 18.4 mph N/A   Scattered Clouds
7:06 PM 44.6 °F 37.8 °F 32.0 °F 61% 30.21 in 7.0 mi WNW 15.0 mph 21.9 mph N/A   Partly Cloudy
7:53 PM 39.9 °F 33.4 °F 30.0 °F 68% 30.26 in 7.0 mi West 10.4 mph - N/A   Partly Cloudy
8:53 PM 41.0 °F 32.8 °F 27.0 °F 57% 30.28 in 7.0 mi WNW 16.1 mph - N/A   Partly Cloudy
9:53 PM 34.0 °F 29.8 °F 28.0 °F 79% 30.29 in 7.0 mi SSW 4.6 mph - N/A   Partly Cloudy
10:53 PM 36.0 °F 28.0 °F 28.0 °F 73% 30.28 in 10.0 mi West 11.5 mph - N/A   Clear
11:53 PM 33.1 °F 24.9 °F 27.0 °F 78% 30.30 in 10.0 mi WNW 10.4 mph - N/A   Clear